User: anonymous   Login
Location: Unspecified
(0.0000°N, 0.0000°E)
Time: 07:55:59
(UTC+00:00)
Language:

NOSS 2-3 (D) - Orbit

View from above orbital plane
View from above orbital plane
View from above satellite
View from above satellite

Ground track
Ground track

The orbit data is extracted from the following two-line orbital elements,

1 23862U 96029D   17142.93691750 0.00000000  00000-0  00000-0 0    05
2 23862  63.3744 119.0123 0603000  13.0077 346.9923 13.40814961    07
Epoch (UTC): 22 May 2017 22:29:09
Eccentricity: 0.0603000
inclination: 63.3744°
perigee height: 655 km
apogee height: 1557 km
right ascension of ascending node: 119.0123°
argument of perigee: 13.0077°
revolutions per day: 13.40814961
mean anomaly at epoch: 346.9923°
orbit number at epoch: 0

The dashed part of the orbit path shows where the satellite is in the earth's shadow,  

DLR